525  
NZUS99 KSGF 230107  
HRRSGF  
 
HOURLY WEATHER  
NATIONAL WEATHER SERVICE SPRINGFIELD MO  
800 PM CDT THU JUN 22 2017  
   
.....SGF CWA...
 
 
 
CITY SKY/WX TMP DP RH WIND PRES REMARKS  
SPRINGFIELD PTCLDY 83 71 67 SE10 29.71S  
JOPLIN MOCLDY 84 76 76 S6 29.69R HX 93  
WEST PLAINS MOCLDY 78 72 81 S9 29.77R  
ROLLA PTCLDY 81 73 76 SE9 29.73S  
OSAGE BEACH MOCLDY 82 74 76 CALM 29.72S  
BRANSON MOCLDY 79 72 78 SE14 29.74S  
   
.....SURROUNDING SGF CWA...
 
 
 
CITY SKY/WX TMP DP RH WIND PRES REMARKS  
CHANUTE PTCLDY 85 72 65 S8 29.66S HX 91  
PARSONS CLEAR 85 71 63 S3 29.67S HX 90  
COFFEYVILLE CLEAR 85 73 67 S9 29.65S HX 91  
EMPORIA CLEAR 83 72 69 S7 29.66R  
GROVE OK CLEAR 86 72 62 CALM 29.68S HX 92  
ROGERS AR MOCLDY 83 72 69 SE5 29.71S  
SILOAM SPRINGS CLOUDY 82 72 69 SE5 29.69S  
HARRISON AR CLOUDY 76 72 87 SE8 29.74S  
NEAR YELLVILLE PTCLDY 75 70 83 CALM 29.70S  
   
.....KANSAS AND MISSOURI...
 
 
 
CITY SKY/WX TMP DP RH WIND PRES REMARKS  
KANSAS CTY INT PTCLDY 82 72 71 SW7 29.67R  
DOWNTOWN KC CLEAR 86 72 62 S8G30 29.65R HX 92  
COLUMBIA CLOUDY 81 74 79 S6 29.71F  
SEDALIA CLEAR 82 75 79 SE10 29.70F  
ST JOSEPH PTCLDY 84 73 69 S7 29.66R HX 90  
ST LOUIS CLOUDY 85 71 63 SE14 29.74S HX 90  
SPIRIT OF STL MOCLDY 83 73 72 S6 29.71F  
KIRKSVILLE CLEAR 81 72 74 S10 29.71R  
WICHITA PTCLDY 86 70 58 SE12 29.64R HX 90  
TOPEKA PTCLDY 86 72 62 S9 29.65R HX 92  
OLATHE CLEAR 82 73 74 S15 29.66S  
   
.....TENNESSEE...
 
 
 
CITY SKY/WX TMP DP RH WIND PRES REMARKS  
MEMPHIS CLOUDY 79 78 97 E10 29.75S  
NASHVILLE MOCLDY 77 74 90 S10 29.90R  
   
.....ARKANSAS....
 
 
 
CITY SKY/WX TMP DP RH WIND PRES REMARKS  
FAYETTEVILLE PTCLDY 81 71 71 SE7 29.70R  
FT SMITH PTCLDY 82 74 76 E9 29.64S  
LITTLE ROCK CLOUDY 75 75 100 NE10 29.65S  
   
.....OKLAHOMA....
 
 
 
CITY SKY/WX TMP DP RH WIND PRES REMARKS  
TULSA PTCLDY 85 74 69 E7 29.64R HX 92  
PONCA CITY CLEAR 87 69 54 SE13 29.63S HX 91  
MCALESTER MOCLDY 88 74 63 NE6 29.65S HX 96  
OKLAHOMA CITY PTCLDY 87 66 49 S7 29.65S  
   
.....IOWA.........
 
 
 
CITY SKY/WX TMP DP RH WIND PRES REMARKS  
DES MOINES CLOUDY 85 70 60 SW8 29.65S  
QUAD CITIES CLOUDY 82 70 66 S8 29.68R  
   
.....ILLINOIS.....
 
 
 
CITY SKY/WX TMP DP RH WIND PRES REMARKS  
QUINCY CLEAR 81 72 74 S10 29.70S  
CHICAGO PTCLDY 83 69 62 S16G23 29.71R  
 
CLICK HERE TO GO TO PREVIOUS BULLETINS.

The Nexlab MO Page
The Nexlab KS Page Main Text Page